Retour au catalogue

CLEMENTINE

ActifMilitairePO
NORAD 25978·PAYLOAD·🇫🇷 France

Lancé Dec 3, 1999 depuis Guiana Space Centre

Loading…

Prochains Passages (prochaines 24 heures)

TLE

FraisSource: Space-Track

Époque: Sep 14, 2026, 13:20 UTC

1 25978U 99064B   26257.55593803  .00022119  00000-0  48888-3 0  9993
2 25978  98.1476   2.1983 0001969 171.7393 188.3885 15.43868043722326

Suivez CLEMENTINE en temps réel avec AllMySat

Download on the App Store